Location: Unspecified
(54.1780°N, 0.0000°E)
Time: 15:22:00
(UTC+00:00)

Altair - Pass Details

Date: 22 June 2019
Orbit: 1501 x 1683 km, 47.2° (Epoch: 20 July)

Event Time Altitude Azimuth Distance (km) Brightness Sun altitude
Rises 22:33:27 0° 260° (W) 4,764 10.2 -10.1°
Reaches altitude 10° 22:36:33 10° 257° (WSW) 3,803 9.7 -10.2°
Maximum altitude 22:45:59 59° 182° (S) 1,849 7.6 -10.7°
Drops below altitude 10° 22:55:46 10° 106° (ESE) 3,926 9.3 -11.1°
Sets 22:59:01 0° 103° (ESE) 4,925 9.9 -11.2°
